Location: Topeka
(39.0480°N, 95.6780°W)
Time: 17:37:23
(UTC-05:00)

ISS - Visible Passes

Search period start: 24 July 2017 00:00
Search period end: 03 August 2017 00:00
Orbit: 400 x 408 km, 51.6° (Epoch: 25 July)

Date Brightness Start Highest point End Pass type
(mag) Time Alt. Az. Time Alt. Az. Time Alt. Az.
24 Jul -0.4 00:09:07 10° NW 00:10:43 13° NNW 00:12:20 10° NNE visible
24 Jul -1.1 03:23:22 10° NNW 03:25:52 20° NNE 03:28:22 10° ENE visible
24 Jul -3.9 04:59:22 10° WNW 05:02:35 59° SW 05:05:47 10° SE visible
24 Jul -4.0 21:38:06 10° SW 21:41:19 80° SE 21:44:34 10° NE visible
24 Jul -0.8 23:15:52 10° WNW 23:18:08 17° NNW 23:20:25 10° NNE visible
25 Jul -0.6 02:31:24 10° NNW 02:33:18 14° NNE 02:35:12 10° NE visible
25 Jul -3.6 04:07:43 15° NW 04:10:17 67° NE 04:13:30 10° ESE visible
25 Jul -1.8 05:45:11 10° WSW 05:46:20 11° SW 05:47:29 10° SSW visible
25 Jul -1.4 22:22:50 10° W 22:25:36 25° NNW 22:28:22 10° NNE visible
26 Jul -2.4 21:30:02 10° WSW 21:33:08 41° NNW 21:36:15 10° NE visible
26 Jul -0.5 23:08:57 10° NW 23:10:17 12° NNW 23:11:37 10° N visible
27 Jul -0.7 22:15:35 10° WNW 22:17:38 15° NNW 22:19:42 10° NNE visible
28 Jul -1.1 21:22:25 10° W 21:25:02 22° NNW 21:27:39 10° NNE visible
29 Jul -0.3 00:38:44 10° N 00:39:05 11° N 00:39:05 11° N visible
29 Jul -0.6 22:08:43 10° NNW 22:09:44 11° NNW 22:10:46 10° N visible
29 Jul -0.5 23:47:08 10° N 23:47:26 10° N 23:47:43 10° NNE visible
30 Jul -0.8 21:15:12 10° NW 21:17:02 14° NNW 21:18:52 10° NNE visible
31 Jul -0.3 00:29:52 10° NNW 00:30:05 11° NNW 00:30:05 11° NNW visible
31 Jul -0.8 23:37:51 10° NNW 23:39:19 13° NNE 23:39:19 13° NNE visible
01 Aug -0.6 21:08:24 10° NNW 21:09:05 10° N 21:09:45 10° N visible
01 Aug -0.8 22:45:58 10° N 22:46:46 11° N 22:47:34 10° NNE visible
02 Aug -0.2 00:21:06 10° NW 00:21:11 10° NW 00:21:11 10° NW visible
02 Aug -1.1 23:28:56 10° NNW 23:30:27 18° N 23:30:27 18° N visible
